When you browse on this site, cookies collect data to enhance your experience and personalize the content and advertising you see.
Visit our Privacy Policy to learn more. By continuing to use the site, you agree to this use of cookies and data.
  • en Suisse
  • Liste des pays
  • À 7 jours
  • Température de l'eau
  • Carte satellitaire
  • Carte météo
  • Widgets météo
  • user-avatar
    Se connecter

    Météo par heure à Tokmak

    Ce jour, 21 Janvier, Lundi

    Heure Température Précipitation Vent Pression Humidité
    00:00 -17°C° 0 mm 1 m/s 473 mmHg 78%
    01:00 -17°C° 0 mm 1 m/s 473 mmHg 81%
    02:00 -17°C° 0 mm 1 m/s 473 mmHg 83%
    03:00 -18°C° 0.1 mm 1 m/s 473 mmHg 83%
    04:00 -20°C° 0.1 mm 2 m/s 473 mmHg 83%
    05:00 -20°C° 0 mm 2 m/s 474 mmHg 79%
    06:00 -20°C° 0.2 mm 2 m/s 474 mmHg 80%
    07:00 -20°C° 0.2 mm 2 m/s 474 mmHg 80%
    08:00 -20°C° 0.2 mm 2 m/s 474 mmHg 80%
    09:00 -19°C° 0.3 mm 2 m/s 475 mmHg 81%
    10:00 -19°C° 0.3 mm 2 m/s 475 mmHg 81%
    11:00 -17°C° 0 mm 2 m/s 476 mmHg 78%
    12:00 -17°C° 0.1 mm 2 m/s 476 mmHg 79%
    13:00 -17°C° 0.1 mm 2 m/s 476 mmHg 80%
    14:00 -18°C° 0.1 mm 2 m/s 476 mmHg 81%
    15:00 -18°C° 0.2 mm 2 m/s 476 mmHg 83%
    16:00 -17°C° 0.2 mm 1 m/s 476 mmHg 86%
    17:00 -17°C° 0 mm 1 m/s 476 mmHg 89%
    18:00 -18°C° 0.2 mm 1 m/s 476 mmHg 88%
    19:00 -18°C° 0.2 mm 1 m/s 476 mmHg 88%
    20:00 -19°C° 0.2 mm 1 m/s 476 mmHg 87%
    21:00 -19°C° 0.1 mm 1 m/s 475 mmHg 86%
    22:00 -19°C° 0.1 mm 1 m/s 475 mmHg 85%
    23:00 -20°C° 0.1 mm 1 m/s 474 mmHg 83%

    Demain, 22 Janvier, Mardi

    Heure Température Précipitation Vent Pression Humidité
    00:00 -20°C° 0 mm 1 m/s 474 mmHg 76%
    01:00 -23°C° 0 mm 2 m/s 473 mmHg 69%
    02:00 -24°C° 0 mm 2 m/s 473 mmHg 62%
    03:00 -24°C° 0 mm 2 m/s 473 mmHg 59%
    04:00 -24°C° 0 mm 2 m/s 472 mmHg 56%
    05:00 -24°C° 0 mm 2 m/s 472 mmHg 53%
    06:00 -23°C° 0 mm 2 m/s 472 mmHg 54%
    07:00 -23°C° 0 mm 2 m/s 472 mmHg 54%
    08:00 -23°C° 0 mm 2 m/s 472 mmHg 54%
    09:00 -18°C° 0 mm 1 m/s 473 mmHg 55%
    10:00 -17°C° 0 mm 1 m/s 474 mmHg 56%
    11:00 -15°C° 0 mm 1 m/s 474 mmHg 58%
    12:00 -15°C° 0 mm 1 m/s 474 mmHg 61%
    13:00 -15°C° 0 mm 1 m/s 474 mmHg 65%
    14:00 -15°C° 0 mm 1 m/s 473 mmHg 69%
    15:00 -16°C° 0 mm 1 m/s 473 mmHg 72%
    16:00 -17°C° 0 mm 1 m/s 472 mmHg 76%
    17:00 -18°C° 0 mm 1 m/s 471 mmHg 79%
    18:00 -18°C° 0 mm 1 m/s 471 mmHg 73%
    19:00 -20°C° 0 mm 2 m/s 472 mmHg 67%
    20:00 -20°C° 0 mm 2 m/s 472 mmHg 61%
    21:00 -20°C° 0 mm 2 m/s 472 mmHg 58%
    22:00 -20°C° 0 mm 2 m/s 472 mmHg 55%
    23:00 -20°C° 0 mm 2 m/s 472 mmHg 52%

    Après-demain, 23 Janvier, Mercredi

    Heure Température Précipitation Vent Pression Humidité
    00:00 -20°C° 0 mm 2 m/s 472 mmHg 52%
    01:00 -20°C° 0 mm 2 m/s 472 mmHg 52%
    02:00 -20°C° 0 mm 2 m/s 472 mmHg 52%
    03:00 -21°C° 0 mm 2 m/s 472 mmHg 52%
    04:00 -21°C° 0 mm 2 m/s 472 mmHg 53%
    05:00 -23°C° 0 mm 2 m/s 471 mmHg 53%
    06:00 -23°C° 0 mm 2 m/s 472 mmHg 53%
    07:00 -23°C° 0 mm 2 m/s 472 mmHg 52%
    08:00 -23°C° 0 mm 2 m/s 472 mmHg 52%
    09:00 -20°C° 0 mm 2 m/s 473 mmHg 54%
    10:00 -17°C° 0 mm 1 m/s 474 mmHg 55%
    11:00 -15°C° 0 mm 1 m/s 475 mmHg 57%
    12:00 -15°C° 0 mm 1 m/s 475 mmHg 59%
    13:00 -15°C° 0 mm 1 m/s 475 mmHg 62%
    14:00 -15°C° 0 mm 1 m/s 475 mmHg 65%
    15:00 -17°C° 0 mm 1 m/s 474 mmHg 68%
    16:00 -18°C° 0 mm 1 m/s 473 mmHg 71%
    17:00 -20°C° 0 mm 1 m/s 472 mmHg 74%
    18:00 -23°C° 0 mm 2 m/s 472 mmHg 70%
    19:00 -23°C° 0 mm 2 m/s 472 mmHg 65%
    20:00 -23°C° 0 mm 2 m/s 472 mmHg 61%
    21:00 -23°C° 0 mm 2 m/s 473 mmHg 58%
    22:00 -23°C° 0 mm 2 m/s 473 mmHg 55%
    23:00 -24°C° 0 mm 3 m/s 473 mmHg 53%

    24 Janvier, Jeudi

    Heure Température Précipitation Vent Pression Humidité
    00:00 -24°C° 0 mm 3 m/s 473 mmHg 52%
    01:00 -24°C° 0 mm 3 m/s 473 mmHg 52%
    02:00 -25°C° 0 mm 3 m/s 473 mmHg 51%
    03:00 -24°C° 0 mm 2 m/s 473 mmHg 52%
    04:00 -24°C° 0 mm 2 m/s 473 mmHg 52%
    05:00 -24°C° 0 mm 2 m/s 473 mmHg 53%
    06:00 -24°C° 0 mm 2 m/s 474 mmHg 54%
    07:00 -24°C° 0 mm 2 m/s 474 mmHg 55%
    08:00 -24°C° 0 mm 2 m/s 475 mmHg 56%
    09:00 -23°C° 0 mm 2 m/s 476 mmHg 57%
    10:00 -20°C° 0 mm 2 m/s 477 mmHg 59%
    11:00 -17°C° 0 mm 1 m/s 478 mmHg 61%
    12:00 -17°C° 0 mm 1 m/s 478 mmHg 62%
    13:00 -17°C° 0 mm 1 m/s 477 mmHg 64%
    14:00 -17°C° 0 mm 1 m/s 477 mmHg 66%
    15:00 -18°C° 0.1 mm 1 m/s 477 mmHg 68%
    16:00 -19°C° 0.1 mm 1 m/s 476 mmHg 71%
    17:00 -20°C° 0.1 mm 1 m/s 476 mmHg 74%
    18:00 -23°C° 0.1 mm 2 m/s 476 mmHg 73%
    19:00 -23°C° 0.1 mm 2 m/s 477 mmHg 71%
    20:00 -23°C° 0.1 mm 2 m/s 477 mmHg 70%
    21:00 -23°C° 0.1 mm 2 m/s 477 mmHg 68%
    22:00 -24°C° 0.1 mm 3 m/s 477 mmHg 67%
    23:00 -24°C° 0.1 mm 3 m/s 477 mmHg 65%

    25 Janvier, Vendredi

    Heure Température Précipitation Vent Pression Humidité
    00:00 -25°C° 0 mm 3 m/s 477 mmHg 64%
    01:00 -25°C° 0 mm 3 m/s 477 mmHg 63%
    02:00 -25°C° 0 mm 3 m/s 477 mmHg 62%
    03:00 -26°C° 0 mm 3 m/s 477 mmHg 61%
    04:00 -26°C° 0 mm 3 m/s 477 mmHg 60%
    05:00 -26°C° 0 mm 3 m/s 476 mmHg 58%
    06:00 -26°C° 0 mm 3 m/s 477 mmHg 57%
    07:00 -26°C° 0 mm 3 m/s 477 mmHg 56%
    08:00 -26°C° 0 mm 3 m/s 477 mmHg 55%
    09:00 -23°C° 0 mm 2 m/s 478 mmHg 54%
    10:00 -20°C° 0 mm 2 m/s 479 mmHg 54%
    11:00 -18°C° 0 mm 2 m/s 480 mmHg 53%
    12:00 -18°C° 0 mm 2 m/s 479 mmHg 54%
    13:00 -16°C° 0 mm 1 m/s 479 mmHg 54%
    14:00 -15°C° 0 mm 1 m/s 479 mmHg 55%
    15:00 -17°C° 0 mm 1 m/s 478 mmHg 57%
    16:00 -20°C° 0 mm 2 m/s 477 mmHg 59%
    17:00 -23°C° 0 mm 2 m/s 476 mmHg 60%
    18:00 -23°C° 0 mm 2 m/s 476 mmHg 57%
    19:00 -24°C° 0 mm 3 m/s 476 mmHg 54%
    20:00 -24°C° 0 mm 3 m/s 476 mmHg 51%
    21:00 -24°C° 0 mm 3 m/s 476 mmHg 47%
    22:00 -24°C° 0 mm 3 m/s 476 mmHg 44%
    23:00 -24°C° 0 mm 3 m/s 476 mmHg 41%

    26 Janvier, Samedi

    Heure Température Précipitation Vent Pression Humidité
    00:00 -24°C° 0 mm 3 m/s 476 mmHg 38%
    01:00 -24°C° 0 mm 3 m/s 476 mmHg 34%
    02:00 -25°C° 0 mm 3 m/s 475 mmHg 31%
    03:00 -25°C° 0 mm 3 m/s 475 mmHg 30%
    04:00 -25°C° 0 mm 3 m/s 475 mmHg 29%
    05:00 -25°C° 0 mm 3 m/s 475 mmHg 28%
    06:00 -25°C° 0 mm 3 m/s 475 mmHg 28%
    07:00 -25°C° 0 mm 3 m/s 475 mmHg 29%
    08:00 -25°C° 0 mm 3 m/s 475 mmHg 30%
    09:00 -23°C° 0 mm 3 m/s 477 mmHg 33%
    10:00 -19°C° 0 mm 2 m/s 478 mmHg 36%
    11:00 -15°C° 0 mm 1 m/s 479 mmHg 38%
    12:00 -15°C° 0 mm 1 m/s 479 mmHg 40%
    13:00 -15°C° 0 mm 1 m/s 478 mmHg 42%
    14:00 -14°C° 0 mm 1 m/s 478 mmHg 43%
    15:00 -18°C° 0 mm 2 m/s 477 mmHg 46%
    16:00 -20°C° 0 mm 2 m/s 476 mmHg 50%
    17:00 -21°C° 0 mm 2 m/s 475 mmHg 53%
    18:00 -24°C° 0 mm 3 m/s 475 mmHg 50%
    19:00 -24°C° 0 mm 3 m/s 475 mmHg 48%
    20:00 -24°C° 0 mm 3 m/s 475 mmHg 45%
    21:00 -24°C° 0 mm 3 m/s 475 mmHg 42%
    22:00 -25°C° 0 mm 4 m/s 475 mmHg 38%
    23:00 -25°C° 0 mm 4 m/s 475 mmHg 35%
    Voir plus